Location: Caltech
(34.1382°N, 118.1253°W)
Time: 13:26:40
(UTC-07:00)

Cosmos 1606 - Visible Passes

Search period start: 20 August 2014 00:00
Search period end: 30 August 2014 00:00
Orbit: 521 x 548 km, 82.5° (Epoch: 19 August)

Date Brightness Start Highest point End Pass type
(mag) Time Alt. Az. Time Alt. Az. Time Alt. Az.
24 Aug 4.7 05:52:11 10° SSE 05:55:50 35° E 05:59:30 10° NNE visible
25 Aug 4.7 05:43:07 10° SSE 05:46:45 34° E 05:50:23 10° NNE visible
26 Aug 4.8 05:34:04 10° SSE 05:37:39 33° E 05:41:15 10° NNE visible
27 Aug 4.8 05:25:00 10° SSE 05:28:33 31° E 05:32:07 10° NNE visible
28 Aug 4.8 05:15:56 10° SSE 05:19:27 30° E 05:22:58 10° NNE visible
29 Aug 4.9 05:06:52 10° SSE 05:10:21 29° E 05:13:50 10° NNE visible
